Location: Beaurecueil
(43.5122°N, 5.5450°E)
Time: 07:33:30
(UTC+00:00)

Cosmos 1939 Rocket - Pass Details

Date: 18 January 2021
Orbit: 531 x 585 km, 97.4° (Epoch: 04 March)

Event Time Altitude Azimuth Distance (km) Brightness Sun altitude
Rises 17:41:53 0° 170° (S) 2,795 6.5 -12.7°
Reaches altitude 10° 17:44:02 10° 172° (S) 1,898 5.7 -13.1°
Maximum altitude 17:48:09 75° 258° (WSW) 607 3.1 -13.8°
Drops below altitude 10° 17:52:17 10° 344° (NNW) 1,898 5.6 -14.6°
Sets 17:54:26 0° 347° (NNW) 2,795 6.4 -14.9°
